This is the latest recevied weather packets stored in our database for station/object KC3SOZ. If no packets are shown the sender has not sent any weather packets the latest 10 day(s).
| Time | Temp. | Humidity | Pressure | Rain* | Wind** | Luminosity | Snow |
|---|---|---|---|---|---|---|---|
| 1778252362 | 13.89° C | 62% | 1014.1 hPa | 0 mm | - | 720 W/m² | - |
| 1778252059 | 13.89° C | 62% | 1014.1 hPa | 0 mm | - | 706 W/m² | - |
| 1778251756 | 12.78° C | 68% | 1014.2 hPa | 0 mm | - | 699 W/m² | - |
| 1778251454 | 12.22° C | 68% | 1014.7 hPa | 0 mm | - | 717 W/m² | - |
| 1778251151 | 12.78° C | 68% | 1014.3 hPa | 0 mm | - | 315 W/m² | - |
| 1778250849 | 12.22° C | 69% | 1014.6 hPa | 0 mm | - | 792 W/m² | - |
| 1778250545 | 12.22° C | 73% | 1014.5 hPa | 0 mm | - | 657 W/m² | - |
| 1778250242 | 12.22° C | 72% | 1014.5 hPa | 0 mm | - | 686 W/m² | - |
| 1778249938 | 11.67° C | 73% | 1014.5 hPa | 0 mm | - | 629 W/m² | - |
| 1778249635 | 11.11° C | 79% | 1014.4 hPa | 0 mm | - | 559 W/m² | - |
| 1778249333 | 10.56° C | 82% | 1014.7 hPa | 0 mm | - | 467 W/m² | - |
| 1778249030 | 10° C | 87% | 1015 hPa | 0 mm | - | 318 W/m² | - |
| 1778248725 | 9.44° C | 87% | 1015 hPa | 0 mm | - | 271 W/m² | - |
| 1778248422 | 9.44° C | 87% | 1014.7 hPa | 0 mm | - | 244 W/m² | - |
| 1778248118 | 8.89° C | 88% | 1014.9 hPa | 0 mm | - | 207 W/m² | - |
| 1778247815 | 8.89° C | 91% | 1014.8 hPa | 0 mm | - | 201 W/m² | - |
| 1778247511 | 8.89° C | 92% | 1015.1 hPa | 0 mm | - | 284 W/m² | - |
| 1778247210 | 8.33° C | 92% | 1015.3 hPa | 0 mm | - | 259 W/m² | - |
| 1778246906 | 8.33° C | 96% | 1015.1 hPa | 0 mm | - | 191 W/m² | - |
| 1778246604 | 8.33° C | 97% | 1015.2 hPa | 0 mm | - | 177 W/m² | - |
| 1778246301 | 7.78° C | 97% | 1015.1 hPa | 0 mm | - | 183 W/m² | - |
| 1778245996 | 7.22° C | 97% | 1015 hPa | 0 mm | - | 104 W/m² | - |
| 1778245693 | 7.22° C | 97% | 1015.1 hPa | 0 mm | - | 120 W/m² | - |
| 1778245390 | 7.22° C | 98% | 1015.2 hPa | 0 mm | - | 97 W/m² | - |
| 1778245086 | 7.22° C | 99% | 1015.3 hPa | 0 mm | - | 86 W/m² | - |
* Rain latest hour (hover to see other rain measurements)
** Current wind speed in m/s (hover to see current wind gust speed)